Time,TemperatureF,DewpointF,PressureIn,WindDirection,WindDirectionDegrees,WindSpeedMPH,WindSpeedGustMPH,Humidity,HourlyPrecipIn,Conditions,Clouds,dailyrainin,SoftwareType,DateUTC
2013-05-17 00:13:00,65.2,62.0,30.19,SSW,205,0.0,0.0,90,0.00,,,0.00,weatherlink.com 1.10,2013-05-17 04:13:00,
2013-05-17 00:31:00,64.9,63.0,30.19,SSW,205,0.0,0.0,92,0.00,,,0.00,weatherlink.com 1.10,2013-05-17 04:31:00,
2013-05-17 00:50:00,64.7,62.0,30.19,SSW,205,0.0,0.0,92,0.00,,,0.00,weatherlink.com 1.10,2013-05-17 04:50:00,
2013-05-17 01:07:00,64.1,62.0,30.19,SSW,205,0.0,0.0,93,0.00,,,0.00,weatherlink.com 1.10,2013-05-17 05:07:00,
2013-05-17 01:25:00,63.6,62.0,30.19,SSW,205,0.0,0.0,94,0.00,,,0.00,weatherlink.com 1.10,2013-05-17 05:25:00,
2013-05-17 01:42:00,63.2,62.0,30.19,SSW,205,0.0,0.0,94,0.00,,,0.00,weatherlink.com 1.10,2013-05-17 05:42:00,
2013-05-17 02:01:00,62.8,61.0,30.20,SSW,205,0.0,0.0,95,0.00,,,0.00,weatherlink.com 1.10,2013-05-17 06:01:00,
2013-05-17 02:18:00,62.6,61.0,30.20,SSW,205,0.0,0.0,95,0.00,,,0.00,weatherlink.com 1.10,2013-05-17 06:18:00,
2013-05-17 02:36:00,62.8,62.0,30.20,SSW,205,0.0,0.0,96,0.00,,,0.00,weatherlink.com 1.10,2013-05-17 06:36:00,
2013-05-17 02:54:00,63.0,62.0,30.20,SSW,205,0.0,0.0,96,0.00,,,0.00,weatherlink.com 1.10,2013-05-17 06:54:00,
2013-05-17 03:12:00,63.4,62.0,30.20,East,91,0.0,1.0,96,0.00,,,0.00,weatherlink.com 1.10,2013-05-17 07:12:00,
2013-05-17 03:29:00,63.7,63.0,30.20,East,92,0.0,1.0,96,0.00,,,0.00,weatherlink.com 1.10,2013-05-17 07:29:00,
2013-05-17 03:48:00,63.8,62.0,30.20,East,91,0.0,0.0,95,0.00,,,0.00,weatherlink.com 1.10,2013-05-17 07:48:00,
2013-05-17 04:05:00,63.9,63.0,30.20,East,91,0.0,1.0,95,0.00,,,0.00,weatherlink.com 1.10,2013-05-17 08:05:00,
2013-05-17 04:23:00,64.1,63.0,30.20,East,91,0.0,0.0,95,0.00,,,0.00,weatherlink.com 1.10,2013-05-17 08:23:00,
2013-05-17 04:41:00,64.0,63.0,30.20,East,91,0.0,1.0,95,0.00,,,0.00,weatherlink.com 1.10,2013-05-17 08:41:00,
2013-05-17 04:59:00,64.1,63.0,30.20,East,92,0.0,1.0,95,0.00,,,0.00,weatherlink.com 1.10,2013-05-17 08:59:00,
2013-05-17 05:16:00,64.0,63.0,30.20,East,90,0.0,1.0,95,0.00,,,0.00,weatherlink.com 1.10,2013-05-17 09:16:00,
2013-05-17 05:35:00,63.9,63.0,30.21,East,91,0.0,0.0,95,0.00,,,0.00,weatherlink.com 1.10,2013-05-17 09:35:00,
2013-05-17 05:52:00,63.9,63.0,30.22,East,92,0.0,0.0,95,0.00,,,0.00,weatherlink.com 1.10,2013-05-17 09:52:00,
2013-05-17 06:10:00,63.7,62.0,30.22,East,90,0.0,0.0,95,0.00,,,0.00,weatherlink.com 1.10,2013-05-17 10:10:00,
2013-05-17 06:28:00,63.4,62.0,30.22,East,92,0.0,0.0,95,0.00,,,0.00,weatherlink.com 1.10,2013-05-17 10:28:00,
2013-05-17 06:46:00,63.3,62.0,30.23,East,91,0.0,0.0,96,0.00,,,0.00,weatherlink.com 1.10,2013-05-17 10:46:00,
2013-05-17 07:03:00,63.3,62.0,30.23,East,91,0.0,0.0,96,0.00,,,0.00,weatherlink.com 1.10,2013-05-17 11:03:00,
2013-05-17 07:22:00,63.6,63.0,30.23,East,92,0.0,0.0,96,0.00,,,0.00,weatherlink.com 1.10,2013-05-17 11:22:00,
2013-05-17 07:39:00,64.3,63.0,30.23,East,91,0.0,0.0,96,0.00,,,0.00,weatherlink.com 1.10,2013-05-17 11:39:00,
2013-05-17 07:58:00,65.0,63.0,30.23,South,173,2.0,3.0,94,0.00,,,0.00,weatherlink.com 1.10,2013-05-17 11:58:00,
2013-05-17 08:15:00,68.2,65.0,30.24,South,172,0.0,1.0,89,0.00,,,0.00,weatherlink.com 1.10,2013-05-17 12:15:00,
2013-05-17 08:33:00,71.8,65.0,30.24,SSW,210,0.0,0.0,80,0.00,,,0.00,weatherlink.com 1.10,2013-05-17 12:33:00,
2013-05-17 08:51:00,74.0,65.0,30.24,West,269,0.0,2.0,73,0.00,,,0.00,weatherlink.com 1.10,2013-05-17 12:51:00,
2013-05-17 09:08:00,74.2,65.0,30.24,SW,221,0.0,1.0,73,0.00,,,0.00,weatherlink.com 1.10,2013-05-17 13:08:00,
2013-05-17 09:26:00,75.4,65.0,30.25,SE,134,0.0,2.0,70,0.00,,,0.00,weatherlink.com 1.10,2013-05-17 13:26:00,
2013-05-17 09:44:00,76.5,65.0,30.25,ENE,70,1.0,3.0,68,0.00,,,0.00,weatherlink.com 1.10,2013-05-17 13:44:00,
2013-05-17 10:02:00,77.4,65.0,30.25,SE,128,0.0,2.0,66,0.00,,,0.00,weatherlink.com 1.10,2013-05-17 14:02:00,
2013-05-17 10:20:00,78.0,65.0,30.25,SSE,162,0.0,3.0,64,0.00,,,0.00,weatherlink.com 1.10,2013-05-17 14:20:00,
2013-05-17 10:37:00,78.8,66.0,30.25,SE,127,0.0,3.0,64,0.00,,,0.00,weatherlink.com 1.10,2013-05-17 14:37:00,
2013-05-17 10:55:00,79.9,65.0,30.25,ESE,116,0.0,3.0,60,0.00,,,0.00,weatherlink.com 1.10,2013-05-17 14:55:00,
2013-05-17 11:13:00,80.0,63.0,30.25,SE,129,2.0,6.0,56,0.00,,,0.00,weatherlink.com 1.10,2013-05-17 15:13:00,
2013-05-17 11:31:00,81.4,63.0,30.25,SSW,208,0.0,5.0,54,0.00,,,0.00,weatherlink.com 1.10,2013-05-17 15:31:00,
2013-05-17 11:49:00,80.1,63.0,30.25,SSE,155,0.0,3.0,57,0.00,,,0.00,weatherlink.com 1.10,2013-05-17 15:49:00,
2013-05-17 12:07:00,81.0,65.0,30.25,SSW,193,3.0,4.0,58,0.00,,,0.00,weatherlink.com 1.10,2013-05-17 16:07:00,
2013-05-17 12:25:00,82.2,65.0,30.24,SSW,195,2.0,3.0,57,0.00,,,0.00,weatherlink.com 1.10,2013-05-17 16:25:00,
2013-05-17 12:42:00,82.2,65.0,30.24,ESE,107,2.0,5.0,56,0.00,,,0.00,weatherlink.com 1.10,2013-05-17 16:42:00,
2013-05-17 13:00:00,82.7,65.0,30.23,SSE,162,1.0,3.0,55,0.00,,,0.00,weatherlink.com 1.10,2013-05-17 17:00:00,
2013-05-17 13:18:00,84.5,65.0,30.23,East,89,0.0,6.0,52,0.00,,,0.00,weatherlink.com 1.10,2013-05-17 17:18:00,
2013-05-17 13:36:00,84.1,64.0,30.22,ESE,110,3.0,4.0,51,0.00,,,0.00,weatherlink.com 1.10,2013-05-17 17:36:00,
2013-05-17 13:53:00,85.0,62.0,30.21,SSE,159,2.0,5.0,46,0.00,,,0.00,weatherlink.com 1.10,2013-05-17 17:53:00,
2013-05-17 14:12:00,83.9,63.0,30.20,East,80,1.0,5.0,49,0.00,,,0.00,weatherlink.com 1.10,2013-05-17 18:12:00,
2013-05-17 14:29:00,84.8,62.0,30.19,SSE,149,1.0,6.0,46,0.00,,,0.00,weatherlink.com 1.10,2013-05-17 18:29:00,
2013-05-17 14:47:00,84.8,64.0,30.19,SE,146,0.0,3.0,50,0.00,,,0.00,weatherlink.com 1.10,2013-05-17 18:47:00,
2013-05-17 15:04:00,80.1,62.0,30.20,SSE,157,0.0,9.0,55,0.00,,,0.00,weatherlink.com 1.10,2013-05-17 19:04:00,
2013-05-17 15:23:00,70.3,63.0,30.22,SSE,165,0.0,7.0,77,0.18,,,0.18,weatherlink.com 1.10,2013-05-17 19:23:00,
2013-05-17 15:40:00,67.7,63.0,30.23,SW,214,0.0,3.0,86,0.20,,,0.20,weatherlink.com 1.10,2013-05-17 19:40:00,
2013-05-17 15:58:00,67.3,65.0,30.24,SE,134,0.0,2.0,91,0.23,,,0.23,weatherlink.com 1.10,2013-05-17 19:58:00,
2013-05-17 16:16:00,66.9,65.0,30.24,ESE,102,1.0,2.0,92,0.29,,,0.39,weatherlink.com 1.10,2013-05-17 20:16:00,
2013-05-17 16:34:00,66.7,65.0,30.23,ESE,117,1.0,4.0,93,0.23,,,0.43,weatherlink.com 1.10,2013-05-17 20:34:00,
2013-05-17 16:51:00,66.0,64.0,30.22,ESE,108,1.0,3.0,92,0.22,,,0.44,weatherlink.com 1.10,2013-05-17 20:51:00,
2013-05-17 17:10:00,66.0,64.0,30.21,SSW,198,0.0,1.0,93,0.09,,,0.47,weatherlink.com 1.10,2013-05-17 21:10:00,
2013-05-17 17:27:00,66.4,65.0,30.21,ENE,77,0.0,1.0,94,0.06,,,0.48,weatherlink.com 1.10,2013-05-17 21:27:00,
2013-05-17 17:43:00,67.2,66.0,30.20,East,79,0.0,1.0,94,0.06,,,0.49,weatherlink.com 1.10,2013-05-17 21:43:00,
2013-05-17 18:00:00,69.4,67.0,30.20,SE,138,0.0,3.0,91,0.04,,,0.49,weatherlink.com 1.10,2013-05-17 22:00:00,
2013-05-17 18:17:00,69.8,66.0,30.21,East,88,2.0,4.0,86,0.02,,,0.49,weatherlink.com 1.10,2013-05-17 22:17:00,
2013-05-17 18:35:00,72.0,67.0,30.21,East,91,5.0,5.0,83,0.00,,,0.49,weatherlink.com 1.10,2013-05-17 22:35:00,
2013-05-17 18:53:00,71.3,66.0,30.22,East,85,0.0,3.0,84,0.00,,,0.49,weatherlink.com 1.10,2013-05-17 22:53:00,
2013-05-17 19:10:00,70.2,66.0,30.22,ESE,102,0.0,2.0,86,0.00,,,0.49,weatherlink.com 1.10,2013-05-17 23:10:00,
2013-05-17 19:28:00,69.6,66.0,30.23,East,86,0.0,1.0,89,0.00,,,0.49,weatherlink.com 1.10,2013-05-17 23:28:00,
2013-05-17 19:45:00,69.4,66.0,30.23,ESE,114,0.0,1.0,89,0.00,,,0.49,weatherlink.com 1.10,2013-05-17 23:45:00,
2013-05-17 20:02:00,69.2,66.0,30.23,ESE,114,0.0,0.0,90,0.00,,,0.49,weatherlink.com 1.10,2013-05-18 00:02:00,
2013-05-17 20:20:00,68.7,66.0,30.24,ESE,105,0.0,1.0,91,0.00,,,0.49,weatherlink.com 1.10,2013-05-18 00:20:00,
2013-05-17 20:38:00,68.1,65.0,30.24,ESE,105,0.0,0.0,89,0.00,,,0.49,weatherlink.com 1.10,2013-05-18 00:38:00,
2013-05-17 20:56:00,67.4,65.0,30.24,ENE,73,0.0,1.0,90,0.00,,,0.49,weatherlink.com 1.10,2013-05-18 00:56:00,
2013-05-17 21:13:00,66.7,64.0,30.25,ENE,73,0.0,0.0,91,0.01,,,0.50,weatherlink.com 1.10,2013-05-18 01:13:00,
2013-05-17 21:32:00,66.2,64.0,30.25,ENE,74,0.0,0.0,93,0.01,,,0.50,weatherlink.com 1.10,2013-05-18 01:32:00,
2013-05-17 21:49:00,65.7,64.0,30.25,ENE,73,0.0,0.0,94,0.01,,,0.50,weatherlink.com 1.10,2013-05-18 01:49:00,
2013-05-17 22:08:00,65.4,64.0,30.25,ENE,74,0.0,0.0,94,0.00,,,0.50,weatherlink.com 1.10,2013-05-18 02:08:00,
2013-05-17 22:25:00,65.5,64.0,30.25,ENE,73,0.0,0.0,95,0.00,,,0.50,weatherlink.com 1.10,2013-05-18 02:25:00,
2013-05-17 22:43:00,65.5,64.0,30.26,ENE,74,0.0,0.0,95,0.00,,,0.50,weatherlink.com 1.10,2013-05-18 02:43:00,
2013-05-17 23:00:00,65.5,64.0,30.26,ENE,62,0.0,0.0,96,0.00,,,0.50,weatherlink.com 1.10,2013-05-18 03:00:00,
2013-05-17 23:19:00,65.1,64.0,30.26,ENE,63,0.0,0.0,95,0.00,,,0.50,weatherlink.com 1.10,2013-05-18 03:19:00,
2013-05-17 23:37:00,64.9,64.0,30.26,ENE,62,0.0,0.0,95,0.00,,,0.50,weatherlink.com 1.10,2013-05-18 03:37:00,
2013-05-17 23:54:00,64.7,63.0,30.26,SE,134,0.0,1.0,95,0.00,,,0.50,weatherlink.com 1.10,2013-05-18 03:54:00,